Regional Weather Roundup
Issued by NWS San Angelo, TX

Current Version | Previous Version | Text Only | Print | Product List | Glossary On
Versions: 1 2 3 4 5 6 7 8 9 10 11 12 13 14 15 16 17 18 19 20 21 22 23 24 25 26 27 28 29 30 31 32 33 34 35 36 37 38 39 40 41 42 43 44 45 46 47 48 49 50
000
ASUS44 KSJT 230510
RWRSJT
WEST CENTRAL TEXAS REGIONAL WEATHER ROUNDUP
NATIONAL WEATHER SERVICE SAN ANGELO TX
1200 AM CDT TUE SEP 23 2014

NOTE: "FAIR" INDICATES FEW OR NO CLOUDS BELOW 12,000 FEET WITH NO
SIGNIFICANT WEATHER AND/OR OBSTRUCTIONS TO VISIBILITY.

TXZ049-054-064>066-071>073-076>078-098-099-113-114-127-128-139-140-
154-155-168>170-230600
...LOCATIONS ACROSS WEST CENTRAL TEXAS...

CITY           SKY/WX    TMP DP  RH WIND       PRES   REMARKS
SAN ANGELO     CLEAR     72  65  78 SE5       30.16S
ABILENE        CLOUDY    75  59  57 E9        30.18S
DYESS AFB      CLOUDY    75  56  51 E9        30.17S
JUNCTION       CLOUDY    77  65  66 E6        30.16S
SWEETWATER     CLOUDY    73  63  69 NE6       30.22F
BROWNWOOD      MOCLDY    73  59  60 E6        30.17S
COLEMAN        NOT AVBL
SONORA         PTCLDY    75  61  60 NE5       30.21S
OZONA          FAIR      73  59  60 CALM      30.20S
BRADY          CLEAR     72  64  78 E6        30.17S
$$

TEXAS PANHANDLE/OKLAHOMA PANHANDLE

CITY           SKY/WX    TMP DP  RH WIND       PRES   REMARKS
AMARILLO       PTCLDY    64  58  80 S14       30.23R
BORGER         PTCLDY    68  56  65 S14       30.20S
CANADIAN       MOCLDY    70  53  55 S10       30.16S
DALHART        PTCLDY    64  61  90 SW13      30.22F
DUMAS          PTCLDY    64  60  87 S10       30.21F
GUYMON         NOT AVBL
HEREFORD       MOCLDY    66  63  92 S7        30.24R
PAMPA          MOCLDY    65  52  63 S10       30.22S
PERRYTON       PTCLDY    65  51  60 S9        30.18S
$$

SOUTHERN PANHANDLE/SOUTH PLAINS/ROLLING PLAINS

CITY           SKY/WX    TMP DP  RH WIND       PRES   REMARKS
LUBBOCK        MOCLDY    65  60  84 SE8       30.22F
SNYDER         MOCLDY    71  62  74 E7        30.20F
CHILDRESS      PTCLDY    68  50  52 SE9       30.18F
SEMINOLE       CLOUDY    67  64  89 SE8       30.25S
$$

PERMIAN BASIN

CITY           SKY/WX    TMP DP  RH WIND       PRES   REMARKS
MIDLAND        MOCLDY    70  65  84 E9        30.20S
ODESSA         MOCLDY    69  62  78 E8        30.22R
WINK           MOCLDY    71  62  73 E6        30.18S
$$

FAR WEST/SOUTHWEST MOUNTAINS/TRANS PECOS

CITY           SKY/WX    TMP DP  RH WIND       PRES   REMARKS
ALPINE         MOCLDY    66  53  61 CALM      30.32S
DRYDEN           N/A     75  59  57 CALM      30.15S
EL PASO        MOCLDY    69  64  84 NE5       30.21R
FORT STOCKTON  PTCLDY    67  57  70 S8        30.20R
GUADALUPE PASS CLOUDY    61  58  90 NE23        N/A
MARFA          CLOUDY    63  54  72 N5        30.31S
PECOS          MOCLDY    67  61  81 E6        30.17F
$$

DALLAS/FORT WORTH METROPLEX

CITY           SKY/WX    TMP DP  RH WIND       PRES   REMARKS
DFW AIRPORT    MOCLDY    73  52  47 E8        30.15S
FTW MEACHAM    MOCLDY    73  52  47 E6        30.15S
DAL-EXECUTIVE  MOCLDY    73  52  47 E7        30.15S
GRAND PRAIRIE  MOCLDY    73  51  46 NE7       30.17S
ADDISON        MOCLDY    72  51  48 E7        30.17S
MESQUITE       MOCLDY    68  52  56 E6        30.16S
LANCASTER      MOCLDY    66  51  58 E5        30.17R
$$

NORTH CENTRAL TEXAS

CITY           SKY/WX    TMP DP  RH WIND       PRES   REMARKS
SHRMAN/DENISON PTCLDY    65  54  68 E7        30.18F
GAINESVILLE    MOCLDY    64  53  68 N3        30.19S
BRIDGEPORT     MOCLDY    67  50  54 SE5       30.18S
DENTON         MOCLDY    69  53  56 E5        30.16S
WAXAHACHIE     MOCLDY    68  50  51 NE7       30.17S
GRANBURY       MOCLDY    73  51  46 E5        30.17S
$$

WESTERN NORTH TEXAS

CITY           SKY/WX    TMP DP  RH WIND       PRES   REMARKS
WICHITA FALLS  MOCLDY    67  54  63 E6        30.16F
VERNON         CLEAR     71  51  49 SE7       30.17F
BRECKENRIDGE   MOCLDY    74  47  38 SE5       30.16S
COMANCHE       CLEAR     70  55  57 E3        30.18R
$$

CENTRAL AND SOUTH CENTRAL TEXAS

CITY           SKY/WX    TMP DP  RH WIND       PRES   REMARKS
AUSTIN/BERGSTM PTCLDY    75  69  81 NE6       30.10S
WACO           PTCLDY    70  54  56 NE7       30.14R
HILLSBORO      MOCLDY    70  50  49 NE10      30.15S
TEMPLE         CLEAR     72  54  53 NE9       30.13S
KILLEEN-GRAY   CLEAR     77  55  47 E9        30.14S
FORT HOOD      CLEAR     76  56  49 NE5       30.15R
GEORGETOWN     CLEAR     75  61  60 NE5       30.13S
LAGO VISTA     FAIR      75  65  71 E6        30.15R
SAN MARCOS     CLEAR     75  64  69 NE5       30.11S
NEW BRAUNFELS  CLEAR     77  69  76 NE7       30.09S
RANDOLPH AFB   CLEAR     78  69  74 NE5       30.11R
SAN ANTONIO    CLEAR     80  69  69 NE5       30.11R
STINSON        CLEAR     80  69  69 NE6       30.08R
PLEASANTON     NOT AVBL
LA GRANGE      CLEAR     78  68  72 CALM      30.08S
GIDDINGS       CLEAR     73  65  76 E3        30.14R
$$

EAST TEXAS

CITY           SKY/WX    TMP DP  RH WIND       PRES   REMARKS
PARIS          CLEAR     63  50  63 E6        30.19S
CLARKSVILLE    NOT AVBL
TYLER          CLEAR     66  54  65 NE5       30.16R
LONGVIEW       CLEAR     67  53  61 NE8       30.15S
PALESTINE      CLEAR     69  54  59 NE8       30.15S
NACOGDOCHES    CLEAR     66  52  59 NE3       30.14S
$$

TEXAS HILL COUNTRY AND EDWARDS PLATEAU

CITY           SKY/WX    TMP DP  RH WIND       PRES   REMARKS
LLANO          PTCLDY    75  64  69 E5        30.17S
HORSESHOE BAY  FAIR      71  71 100 CALM      30.14R
KERRVILLE      CLOUDY    76  68  75 CALM      30.15S
FREDERICKSBRG  MOCLDY    74  68  82 NE5       30.16S
ROCKSPRINGS    PTCLDY    73  61  64 CALM      30.20S
HONDO          CLEAR     77  64  64 E7        30.12R
UVALDE         PTCLDY    75  64  68 E5        30.11R
DEL RIO        MOCLDY    77  68  73 CALM      30.08S
$$

SOUTHEAST TEXAS

CITY           SKY/WX    TMP DP  RH WIND       PRES   REMARKS
COLLEGE STN    PTCLDY    75  61  61 NE9       30.11R
CALDWELL       CLEAR     73  64  73 N5        30.14S
CROCKETT       CLEAR     70  57  64 NE6       30.16S
BRENHAM        PTCLDY    75  65  70 NE3       30.11R
HUNTSVILLE     CLEAR     69  60  73 CALM      30.12R
CONROE         CLEAR     68  63  84 N3        30.11R
HOUSTON BUSH   PTCLDY    74  63  68 NE6       30.08S
HOUSTON HOBBY  PTCLDY    77  64  64 E7        30.07R
PERLAND        PTCLDY    77  66  68 NE5       30.08S
WHARTON        CLEAR     74  70  88 NE7       30.08S
$$

THE UPPER TEXAS COAST

CITY           SKY/WX    TMP DP  RH WIND       PRES   REMARKS
ORANGE         CLEAR     71  56  59 N6        30.10S
PORT ARTHUR    CLEAR     73  58  59 NE12      30.08R
GALVESTON      CLEAR     78  70  76 NE13      30.07R
ANGLETON       PTCLDY    75  70  84 NE6       30.06S
BAY CITY       CLEAR    N/A N/A N/A NE7       30.06S
$$

TEXAS COASTAL BEND, RIO GRANDE PLAINS DEEP SOUTH TEXAS

CITY           SKY/WX    TMP DP  RH WIND       PRES   REMARKS
VICTORIA       PTCLDY    78  74  87 N5        30.06S
BEEVILLE       FAIR      76  68  75 E5        30.07S
ROCKPORT       MOCLDY    80  74  81 N3        30.05
PORT ARANSAS   MOCLDY    82  73  72 E6        30.04S
PORT LAVACA    HVY RAIN  73  71  94 NE5       30.07R
CORPUS CHRISTI PTCLDY    77  72  84 SE5       30.05R
KINGSVILLE NAS PTCLDY    73  72  96 S3        30.05S
COTULLA        MOCLDY    80  66  62 S5        30.08S
LAREDO         CLEAR     79  64  59 SE7       30.10S
BROWNSVILLE    CLEAR     78  73  84 NE3       30.03S
PORT ISABEL    NOT AVBL
HEBBRONVILLE     N/A     73  66  79 S3        30.09S
MCALLEN        CLEAR     78  72  81 CALM      30.06R
WESLACO        CLEAR     74  71  88 CALM      30.05R
FALFURRIAS     CLEAR    N/A N/A N/A CALM      30.06S
EDINBURG       CLEAR     75  72  88 CALM      30.06S
$$


USA.gov is the U.S. government's official web portal to all federal, state and local government web resources and services.